Location: Kuppenheim
(48.8299°N, 8.2568°E)
Time: 07:45:43
(UTC+00:00)

ERBS - Pass Details

Date: 31 October 2021
Orbit: 393 x 407 km, 57.0° (Epoch: 30 November)

Event Time Altitude Azimuth Distance (km) Brightness Sun altitude
Exits shadow 05:13:56 14° 299° (WNW) 1,241 4.0 -10.1°
Maximum altitude 05:15:56 23° 346° (NNW) 909 3.7 -9.8°
Drops below altitude 10° 05:18:39 10° 42° (NE) 1,475 5.5 -9.3°
Sets 05:21:01 0° 57° (ENE) 2,341 6.8 -8.9°
